Content
SEND FEEDBACK

Daily
Averages
Monthly
Summary
United States of America

SOUTH LAKE TAHOE, CALIFORNIA


Home > North America > United States > California
Elevation: 6263 feet     Latitude: 38 53N     Longitude: 119 59W

WEATHER
 
SELECT A DAY
Number of Records: 174,420;   Date Range: 1/1/95 - 7/29/14
 
SHARE

PRINT THIS DATA

[ ← Previous Day ]
WEATHER ALMANAC - JULY 17, 2013
[ Next Day → ]
[ °C ]   °F
We're sorry. There is no daily almanac available for South Lake Tahoe, California on July 17, 2013.
WEATHER BY HOUR - JULY 17, 2013
[ °C ]   °F
Local TimeTemperatureDewpointHumidityBarometerVisibilityWind DirectionWind SpeedGust SpeedPrecipitationEventsConditions
1:53 AM44.1 °F34.0 °F68 %30.09 in10.0 miCalmClear
2:53 AM43.0 °F34.0 °F71 %30.10 in10.0 miCalmClear
3:53 AM39.9 °F32.0 °F73 %30.12 in10.0 miCalmClear
4:53 AM39.0 °F30.9 °F73 %30.13 in10.0 miSouth (190°)3.5 mphClear
5:53 AM37.0 °F30.0 °F76 %30.15 in10.0 miSSW (200°)3.5 mphClear
6:53 AM37.9 °F30.0 °F73 %30.17 in10.0 miSouth (190°)3.5 mphClear
7:53 AM50.0 °F28.0 °F43 %30.16 in10.0 miSouth (170°)3.5 mphClear
8:53 AM62.1 °F30.0 °F30 %30.14 in10.0 miCalmClear
9:53 AM69.1 °F28.9 °F22 %30.12 in10.0 miVariable4.6 mphClear
10:53 AM73.0 °F32.0 °F22 %30.13 in10.0 miNNE (20°)6.9 mphClear
11:53 AM73.9 °F33.1 °F22 %30.14 in10.0 miVariable6.9 mphClear
12:53 PM75.9 °F28.9 °F18 %30.14 in10.0 miVariable4.6 mphClear
1:53 PM79.0 °F27.0 °F15 %30.13 in10.0 miNNE (20°)8.1 mphClear
2:53 PM81.0 °F27.0 °F14 %30.13 in10.0 miVariable5.8 mphClear
3:53 PM81.0 °F30.0 °F16 %30.13 in10.0 miNNE (30°)11.5 mph18.4 mphClear
4:53 PM80.1 °F33.1 °F18 %30.13 in10.0 miNNE (30°)9.2 mphClear
5:53 PM79.0 °F39.9 °F25 %30.14 in10.0 miNNE (20°)6.9 mphClear
6:53 PM75.0 °F41.0 °F29 %30.15 in10.0 miCalmClear
7:53 PM70.0 °F39.9 °F33 %30.14 in10.0 miCalmClear
8:53 PM64.0 °F39.9 °F41 %30.14 in10.0 miCalmClear
9:53 PM60.1 °F42.1 °F51 %30.14 in10.0 miCalmClear
10:53 PM57.0 °F42.1 °F57 %30.15 in10.0 miCalmClear
11:53 PM54.0 °F42.1 °F64 %30.16 in10.0 miSouth (190°)3.5 mphClear
Hourly data recorded from KTVL, located miles away from South Lake Tahoe, California







STORIES FROM OUR PARTNERS